Terminal Aerodrome Forecast
Issued by NWS Sterling, VA

Current Version | Previous Version | Graphics & Text | Print | Product List | Glossary On
Versions: 1 2 3 4 5 6 7 8 9 10 11 12 13 14 15 16 17 18 19 20 21 22 23 24 25
000
FTUS41 KLWX 262038 AAA
TAFIAD
TAF AMD
KIAD 262038Z 2621/2724 32008G18KT P6SM FEW060
     FM270000 30004KT P6SM SKC
     FM271000 00000KT P6SM BKN090
     FM271800 19006KT P6SM OVC070=

USA.gov is the U.S. government's official web portal to all federal, state and local government web resources and services.